Location: Barruelo
(41.2448°N, 3.8231°W)
Time: 22:55:31
(UTC+00:00)

Cosmos 2082 - Pass Details

Date: 11 December 2025
Orbit: 831 x 855 km, 71.0° (Epoch: 14 January)

Event Time Altitude Azimuth Distance (km) Brightness Sun altitude
Rises 19:24:37 0° 334° (NNW) 3,425 7.1 -28.9°
Reaches altitude 10° 19:27:05 10° 333° (NNW) 2,488 6.3 -29.3°
Enters shadow 19:32:22 70° 286° (WNW) 906 3.8 -30.3°
